Terug naar catalogus

ONEWEB-0646

ActiefCommunicatiePO
NORAD 55810·PAYLOAD·🇬🇧 United Kingdom

Gelanceerd Mar 9, 2023 vanaf Cape Canaveral Space Force Station

Loading…

Volgende Passages (komende 24 uur)

TLE

VersSource: CelesTrak SupGP

Epoch: Sep 14, 2026, 19:57 UTC

1 55810C 23029Q   26257.83143936 -.00000375  00000+0 -93703-3 0  2572
2 55810  87.9109 287.1155 0001814  86.1638 308.0374 13.19727918    14

Volg ONEWEB-0646 in realtime met AllMySat

Download on the App Store